Regional Weather Roundup
Issued by NWS

Home | Current Version | Previous Version | Text Only | Print | Product List | Glossary Off
Versions: 1 2 3 4 5 6 7 8 9 10 11 12 13 14 15 16 17 18 19 20 21 22 23 24 25 26 27 28 29 30 31 32 33 34 35 36 37 38 39 40 41 42 43 44 45 46 47 48 49 50

000
ASUS43 KDMX 270607
RWRIA

WEATHER ROUNDUP FOR IOWA
NATIONAL WEATHER SERVICE DES MOINES IA
100 AM CDT MON APR 27 2015

NOTE: "FAIR" INDICATES FEW OR NO CLOUDS BELOW 12,000 FEET WITH NO
SIGNIFICANT WEATHER AND/OR OBSTRUCTIONS TO VISIBILITY.

* - THESE STATIONS ARE NOT NWS STATIONS...THUS NOT UNDER NWS
QUALITY CONTROL.  THEY ALSO DO NOT REPORT WEATHER SUCH
AS PRECIPITATION OR FOG.

IAZ001>003-012>014-020>022-031>034-043>046-270700-
   NORTHWEST IOWA

CITY           SKY/WX    TMP DP  RH WIND       PRES   REMARKS
CARROLL *      PTCLDY    39  36  87 NW6       30.13R WCI  35
CHEROKEE *     CLEAR     42  32  66 CALM      30.15R
DENISON *      CLEAR     39  36  87 CALM      30.12R
LE MARS *      CLEAR     41  34  75 CALM      30.16R
ORANGE CITY *  CLEAR     46  28  49 E5        30.15R
SHELDON *      CLEAR     39  27  60 NE7       30.15R WCI  34
SIOUX CITY     CLEAR     45  31  58 CALM      30.13R
6HR MIN TEMP:  44; 6HR MAX TEMP:  66;

SPENCER        CLEAR     42  31  64 CALM      30.16R
6HR MIN TEMP:  37; 6HR MAX TEMP:  65;

STORM LAKE *   CLEAR     45  28  53 E6        30.14S
$$

IAZ055>058-069>071-079>083-090>094-270700-
   SOUTHWEST IOWA

CITY           SKY/WX    TMP DP  RH WIND       PRES   REMARKS
ATLANTIC *     CLEAR     37  36  93 N6        30.12R WCI  33
AUDUBON *      CLEAR     37  34  87 CALM      30.13S
CLARINDA *     CLEAR     41  37  87 N6        30.11S
COUNCIL BLFS * CLEAR     48  34  57 E8        30.11R
CRESTON *      CLEAR     45  32  61 NE7       30.11R
HARLAN  *      CLEAR     41  39  93 N5        30.15S
LAMONI         CLEAR     48  31  51 E5        30.09R
6HR MIN TEMP:  46; 6HR MAX TEMP:  59;

RED OAK *      CLEAR     41  36  81 N3        30.11S
SHENANDOAH *   CLEAR     41  36  81 NE6       30.11S
$$

IAZ047>049-059>061-072>074-084-270700-
   CENTRAL IOWA

CITY           SKY/WX    TMP DP  RH WIND       PRES   REMARKS
AMES           CLEAR     40  33  76 N3        30.12R
6HR MIN TEMP:  38; 6HR MAX TEMP:  60;

ANKENY *       CLEAR     41  34  75 CALM      30.12R
CHARITON *     CLEAR     43  34  70 NW3       30.10R
DES MOINES     CLEAR     46  29  51 CALM      30.12R
6HR MIN TEMP:  46; 6HR MAX TEMP:  62;

GRINNELL*      CLEAR     46  30  53 NE3       30.10S
KNOXVILLE *    CLEAR     45  34  65 CALM      30.09R
MARSHALLTOWN   CLEAR     40  30  67 N5        30.10R
6HR MIN TEMP:  39; 6HR MAX TEMP:  59;

PELLA *        CLEAR     44  37  78 CALM      30.11S
PERRY *          N/A     43  37  79 N5        30.11S
$$

IAZ004>006-015-016-023>025-035-036-270700-
   NORTH CENTRAL IOWA

CITY           SKY/WX    TMP DP  RH WIND       PRES   REMARKS
ALGONA *       CLEAR     41  32  70 CALM      30.15R
CLARION *      CLEAR     41  30  65 CALM      30.13R
ESTHERVILLE    CLEAR     38  25  59 CALM      30.15R
6HR MIN TEMP:  37; 6HR MAX TEMP:  61;

FORT DODGE *   CLEAR     41  28  60 CALM      30.14S
MASON CITY     CLEAR     40  29  64 CALM      30.14R
6HR MIN TEMP:  35; 6HR MAX TEMP:  59;

FOREST CITY *  CLEAR     34  32  93 CALM      30.13R
IOWA FALLS *     N/A     37  30  75 CALM      30.13R
$$

IAZ007>011-017>019-026>030-037>042-050>054-066-270700-
   NORTHEAST IOWA

CITY           SKY/WX    TMP DP  RH WIND       PRES   REMARKS
CEDAR RAPIDS   CLEAR     42  31  64 NW3       30.08R
6HR MIN TEMP:  41; 6HR MAX TEMP:  58;

CHARLES CITY * CLEAR     41  30  65 N8        30.11S
CLINTON *      CLEAR     36  30  80 NW7       30.09R WCI  30
DECORAH *      CLEAR     46  27  46 N6        30.10R
DUBUQUE        CLEAR     40  29  64 CALM      30.06S
6HR MIN TEMP:  39; 6HR MAX TEMP:  57;

MONTICELLO *   CLEAR     36  36 100 CALM      30.08R
OELWEIN *      CLEAR     41  30  65 NW5       30.10R
WATERLOO       CLEAR     38  32  79 NW3       30.10R
6HR MIN TEMP:  38; 6HR MAX TEMP:  59;

$$

IAZ064-065-067-068-078-270700-
   EAST CENTRAL IOWA

CITY           SKY/WX    TMP DP  RH WIND       PRES   REMARKS
DAVENPORT      CLEAR     39  32  76 W5        30.07S
6HR MIN TEMP:  37; 6HR MAX TEMP:  56;

IOWA CITY      CLEAR     39  33  79 CALM      30.10R
6HR MIN TEMP:  38; 6HR MAX TEMP:  58;

MT. PLEASANT * CLEAR     41  38  89 CALM      30.09R
MUSCATINE *    CLEAR     41  36  81 CALM      30.08S
QUAD CITIES    CLEAR     38  34  85 CALM      30.06S
6HR MIN TEMP:  38; 6HR MAX TEMP:  58;

$$

IAZ062-063-075>077-085>089-095>099-270700-
   SOUTHEAST IOWA

CITY           SKY/WX    TMP DP  RH WIND       PRES   REMARKS
BURLINGTON     CLEAR     41  35  79 NW3       30.07S
6HR MIN TEMP:  40; 6HR MAX TEMP:  58;

FAIRFIELD *    CLEAR     39  34  81 CALM      30.09R
FORT MADISON * CLEAR     43  34  70 CALM      30.08S
KEOKUK *       CLEAR     41  37  87 CALM      30.07S
OSKALOOSA *      N/A     43  32  65 CALM      30.10R
CENTERVILLE *  CLEAR     45  32  61 CALM      30.11R
OTTUMWA        CLEAR     44  33  65 CALM      30.09R
6HR MIN TEMP:  42; 6HR MAX TEMP:  58;

WASHINGTON *   CLEAR     41  41 100 NW6       30.09R
$$

ABBREVIATIONS USED IN REMARKS
   TC - TEMPERATURES IN CELSIUS
  WCI - WIND CHILL INDEX
   HX - HEAT INDEX
  VSB - VISIBILITY
$$



USA.gov is the U.S. government's official web portal to all federal, state and local government web resources and services.